Location: Fernhill
(41.0167°S, 175.6333°E)
Time: 15:20:57
(UTC+00:00)

Meteor 2-6 Rocket - Pass Details

Date: 21 February 2026
Orbit: 804 x 913 km, 81.3° (Epoch: 7 March)

Event Time Altitude Azimuth Distance (km) Brightness Sun altitude
Exits shadow 08:49:51 22° 93° (E) 1,861 5.5 -17.6°
Maximum altitude 08:49:55 22° 94° (E) 1,861 5.5 -17.6°
Drops below altitude 10° 08:54:18 10° 142° (SE) 2,605 6.7 -18.3°
Sets 08:57:20 0° 156° (SSE) 3,567 7.6 -18.8°
